GW7547 Weather Reports


time (UTC)temp
C
wind
direction
speed
KPH
gust
KPH
rain 1hr
cm
rain 24hr
cm
rain mn
cm
humidity
%
barometer
mb
20260906172013 35 250 0.0 12.9 0.00 0.00 0.00 47 1016.1
20260906171504 35 117 3.2 12.9 0.00 0.00 0.00 46 1016.2
20260906171003 35 98 1.6 6.4 0.00 0.00 0.00 48 1016.3
20260906170510 35 92 0.0 4.8 0.00 0.00 0.00 47 1016.3
20260906170006 35 98 1.6 4.8 0.00 0.00 0.00 49 1016.3
20260906165505 34 161 1.6 4.8 0.00 0.00 0.00 50 1016.4
20260906165007 34 134 1.6 4.8 0.00 0.00 0.00 49 1016.4
20260906164524 35 141 1.6 4.8 0.00 0.00 0.00 50 1016.5
20260906164004 34 325 1.6 6.4 0.00 0.00 0.00 51 1016.5
20260906163504 33 130 1.6 6.4 0.00 0.00 0.00 49 1016.6
20260906163018 34 80 1.6 9.7 0.00 0.00 0.00 49 1016.6
20260906162516 34 57 0.0 9.7 0.00 0.00 0.00 50 1016.6
20260906162004 33 40 0.0 3.2 0.00 0.00 0.00 52 1016.6
20260906161516 33 30 1.6 3.2 0.00 0.00 0.00 53 1016.6
20260906161011 33 38 0.0 6.4 0.00 0.00 0.00 52 1016.7
20260906160505 33 18 1.6 6.4 0.00 0.00 0.00 52 1016.7
20260906160010 33 92 3.2 6.4 0.00 0.00 0.00 51 1016.7
20260906155511 33 119 0.0 3.2 0.00 0.00 0.00 51 1016.6
20260906155013 32 121 1.6 6.4 0.00 0.00 0.00 54 1016.6
20260906154518 32 188 1.6 6.4 0.00 0.00 0.00 53 1016.6
20260906154006 32 190 1.6 4.8 0.00 0.00 0.00 57 1016.6
20260906153512 32 103 0.0 3.2 0.00 0.00 0.00 55 1016.6
20260906153015 31 123 1.6 3.2 0.00 0.00 0.00 54 1016.4
20260906152506 32 88 0.0 3.2 0.00 0.00 0.00 57 1016.4
20260906152012 32 151 0.0 3.2 0.00 0.00 0.00 56 1016.4
20260906151530 30 152 0.0 3.2 0.00 0.00 0.00 1016.4
20260906151005 30 133 1.6 3.2 0.00 0.00 0.00 1016.4
20260906150509 31 123 0.0 3.2 0.00 0.00 0.00 56 1016.4
20260906150024 31 123 0.0 3.2 0.00 0.00 0.00 56 1016.4
20260906145507 30 123 0.0 3.2 0.00 0.00 0.00 59 1016.4
20260906145007 30 252 0.0 3.2 0.00 0.00 0.00 59 1016.3
20260906144533 30 234 0.0 3.2 0.00 0.00 0.00 60 1016.3
20260906144014 29 234 0.0 3.2 0.00 0.00 0.00 59 1016.3
20260906143506 29 250 1.6 3.2 0.00 0.00 0.00 60 1016.3
20260906143018 29 219 0.0 3.2 0.00 0.00 0.00 64 1016.3
20260906142514 28 175 0.0 3.2 0.00 0.00 0.00 63 1016.4
20260906142004 28 101 0.0 3.2 0.00 0.00 0.00 63 1016.4
20260906141515 28 101 0.0 3.2 0.00 0.00 0.00 66 1016.5
20260906141009 28 101 0.0 4.8 0.00 0.00 0.00 65 1016.4
20260906140513 28 78 0.0 4.8 0.00 0.00 0.00 68 1016.4
20260906140010 27 90 1.6 3.2 0.00 0.00 0.00 68 1016.3
20260906135508 27 107 1.6 3.2 0.00 0.00 0.00 69 1016.3
20260906135010 27 107 0.0 3.2 0.00 0.00 0.00 71 1016.2
20260906134518 26 107 0.0 3.2 0.00 0.00 0.00 73 1016.2
20260906134007 26 107 0.0 3.2 0.00 0.00 0.00 75 1016.2
20260906133512 25 109 0.0 3.2 0.00 0.00 0.00 76 1016.2
20260906133030 25 109 1.6 3.2 0.00 0.00 0.00 75 1016.2
20260906132506 25 128 1.6 3.2 0.00 0.00 0.00 76 1016.2
20260906132008 25 128 0.0 3.2 0.00 0.00 0.00 76 1016.2
20260906131526 24 128 0.0 3.2 0.00 0.00 0.00 78 1016.1
20260906131004 23 128 0.0 3.2 0.00 0.00 0.00 83 1016.1
20260906130506 23 128 0.0 1.6 0.00 0.00 0.00 84 1016.0
20260906130023 23 128 0.0 3.2 0.00 0.00 0.00 84 1016.0
20260906125516 22 128 0.0 3.2 0.00 0.00 0.00 86 1016.0
20260906125009 22 128 0.0 1.6 0.00 0.00 0.00 86 1015.9
20260906124533 21 128 0.0 3.2 0.00 0.00 0.00 86 1015.9
20260906124014 21 128 0.0 3.2 0.00 0.00 0.00 86 1015.8
20260906123516 21 128 0.0 0.0 0.00 0.00 0.00 88 1015.6
20260906123030 20 128 0.0 0.0 0.00 0.00 0.00 88 1015.5
20260906122516 20 128 0.0 0.0 0.00 0.00 0.00 89 1015.4
20260906122016 20 128 0.0 0.0 0.00 0.00 0.00 89 1015.4
20260906121516 20 128 0.0 0.0 0.00 0.00 0.00 89 1015.3
20260906121007 20 128 0.0 0.0 0.00 0.00 0.00 89 1015.3
20260906120513 20 128 0.0 0.0 0.00 0.00 0.00 89 1015.2
20260906120031 20 128 0.0 0.0 0.00 0.00 0.00 89 1015.2
20260906115508 20 128 0.0 0.0 0.00 0.00 0.00 89 1015.1
20260906115010 20 128 0.0 0.0 0.00 0.00 0.00 89 1015.0
20260906114530 20 128 0.0 0.0 0.00 0.00 0.00 89 1015.0
20260906114006 20 128 0.0 0.0 0.00 0.00 0.00 89 1014.9
20260906113510 20 128 0.0 0.0 0.00 0.00 0.00 88 1014.9
20260906113027 20 128 0.0 0.0 0.00 0.00 0.00 89 1014.9
20260906112502 20 128 0.0 0.0 0.00 0.00 0.00 89 1014.9
20260906112007 20 128 0.0 0.0 0.00 0.00 0.00 89 1014.9
20260906111530 20 128 0.0 0.0 0.00 0.00 0.00 89 1014.9
20260906111003 20 128 0.0 0.0 0.00 0.00 0.00 88 1014.9
20260906110506 20 128 0.0 0.0 0.00 0.00 0.00 88 1014.9
20260906110023 20 128 0.0 0.0 0.00 0.00 0.00 88 1015.0
20260906105514 20 128 0.0 0.0 0.00 0.00 0.00 88 1014.9
20260906105002 20 128 0.0 0.0 0.00 0.00 0.00 88 1014.9
20260906104518 20 128 0.0 0.0 0.00 0.00 0.00 88 1014.9
20260906104012 20 128 0.0 0.0 0.00 0.00 0.00 88 1014.9
20260906103503 20 128 0.0 0.0 0.00 0.00 0.00 87 1015.0
20260906103017 20 128 0.0 0.0 0.00 0.00 0.00 87 1014.9
20260906102511 20 128 0.0 0.0 0.00 0.00 0.00 86 1015.0
20260906102014 21 128 0.0 0.0 0.00 0.00 0.00 86 1014.9
20260906101512 21 128 0.0 0.0 0.00 0.00 0.00 86 1014.9
20260906101008 21 128 0.0 0.0 0.00 0.00 0.00 86 1014.7
20260906100516 21 128 0.0 0.0 0.00 0.00 0.00 85 1014.7
20260906100009 21 128 0.0 0.0 0.00 0.00 0.00 85 1014.8
20260906095508 21 128 0.0 0.0 0.00 0.00 0.00 85 1014.7
20260906095012 21 128 0.0 0.0 0.00 0.00 0.00 85 1014.6
20260906094530 21 128 0.0 0.0 0.00 0.00 0.00 85 1014.6
20260906094006 21 128 0.0 0.0 0.00 0.00 0.00 84 1014.6
20260906093511 21 128 0.0 0.0 0.00 0.00 0.00 84 1014.6
20260906093026 21 128 0.0 0.0 0.00 0.00 0.00 85 1014.6
20260906092503 21 128 0.0 0.0 0.00 0.00 0.00 84 1014.5
20260906092007 21 128 0.0 0.0 0.00 0.00 0.00 83 1014.5
20260906091532 21 128 0.0 0.0 0.00 0.00 0.00 84 1014.5
20260906091014 21 128 0.0 0.0 0.00 0.00 0.00 83 1014.5
20260906090507 21 128 0.0 0.0 0.00 0.00 0.00 83 1014.5
20260906090021 21 128 0.0 0.0 0.00 0.00 0.00 83 1014.5
20260906085517 22 128 0.0 0.0 0.00 0.00 0.00 82 1014.4
20260906085004 22 128 0.0 0.0 0.00 0.00 0.00 82 1014.4
20260906084516 22 128 0.0 0.0 0.00 0.00 0.00 82 1014.4
20260906084013 22 128 0.0 0.0 0.00 0.00 0.00 81 1014.3
20260906083514 22 128 0.0 0.0 0.00 0.00 0.00 81 1014.5
20260906083013 22 128 0.0 0.0 0.00 0.00 0.00 81 1014.3
20260906082506 22 128 0.0 0.0 0.00 0.00 0.00 81 1014.4
20260906082012 22 128 0.0 0.0 0.00 0.00 0.00 80 1014.3
20260906081511 22 128 0.0 0.0 0.00 0.00 0.00 80 1014.3
20260906081008 22 128 0.0 0.0 0.00 0.00 0.00 79 1014.3
20260906080511 22 128 0.0 0.0 0.00 0.00 0.00 79 1014.3
20260906080033 22 128 0.0 0.0 0.00 0.00 0.00 79 1014.4
20260906075506 22 128 0.0 0.0 0.00 0.00 0.00 79 1014.3
20260906075010 22 128 0.0 0.0 0.00 0.00 0.00 80 1014.3
20260906074528 22 128 0.0 0.0 0.00 0.00 0.00 79 1014.4
20260906074015 22 128 0.0 0.0 0.00 0.00 0.00 79 1014.4
20260906073509 22 128 0.0 0.0 0.00 0.00 0.00 80 1014.4
20260906073026 22 128 0.0 0.0 0.00 0.00 0.00 79 1014.4
20260906072514 22 128 0.0 0.0 0.00 0.00 0.00 78 1014.4
20260906072006 23 128 0.0 0.0 0.00 0.00 0.00 77 1014.4
20260906071523 23 128 0.0 0.0 0.00 0.00 0.00 77 1014.5
20260906071018 22 128 0.0 0.0 0.00 0.00 0.00 78 1014.4
20260906070516 22 128 0.0 3.2 0.00 0.00 0.00 78 1014.6
20260906070017 23 128 0.0 3.2 0.00 0.00 0.00 78 1014.7
20260906065510 23 128 0.0 3.2 0.00 0.00 0.00 76 1014.6
20260906065015 23 128 0.0 3.2 0.00 0.00 0.00 74 1014.6
20260906064514 23 128 0.0 3.2 0.00 0.00 0.00 75 1014.7
20260906064011 24 128 0.0 1.6 0.00 0.00 0.00 74 1014.7
20260906063512 25 128 0.0 3.2 0.00 0.00 0.00 71 1014.7
20260906063036 25 128 1.6 3.2 0.00 0.00 0.00 71 1014.7
20260906062506 25 128 0.0 0.0 0.00 0.00 0.00 71 1014.7
20260906062012 25 128 0.0 0.0 0.00 0.00 0.00 69 1014.9
20260906061531 25 128 0.0 0.0 0.00 0.00 0.00 69 1014.7
20260906061004 25 128 0.0 0.0 0.00 0.00 0.00 70 1014.6
20260906060511 24 128 0.0 0.0 0.00 0.00 0.00 73 1014.6
20260906060029 23 128 0.0 0.0 0.00 0.00 0.00 74 1014.7
20260906055517 24 128 0.0 0.0 0.00 0.00 0.00 74 1014.8
20260906055008 24 128 0.0 0.0 0.00 0.00 0.00 73 1014.6
20260906054538 24 128 0.0 0.0 0.00 0.00 0.00 74 1014.7
20260906054016 24 128 0.0 0.0 0.00 0.00 0.00 72 1014.7
20260906053507 25 128 0.0 0.0 0.00 0.00 0.00 70 1014.7
20260906053022 25 128 0.0 0.0 0.00 0.00 0.00 70 1014.5
20260906052512 25 128 0.0 0.0 0.00 0.00 0.00 73 1014.6
20260906052019 25 128 0.0 3.2 0.00 0.00 0.00 71 1014.6
20260906051519 25 128 0.0 3.2 0.00 0.00 0.00 72 1014.6
20260906051012 24 128 0.0 3.2 0.00 0.00 0.00 72 1014.5
20260906050513 24 128 0.0 1.6 0.00 0.00 0.00 72 1014.5
20260906050016 25 128 0.0 1.6 0.00 0.00 0.00 72 1014.6
20260906045513 25 128 0.0 0.0 0.00 0.00 0.00 68 1014.5
20260906045014 25 128 0.0 0.0 0.00 0.00 0.00 68 1014.5
20260906044530 25 128 0.0 0.0 0.00 0.00 0.00 70 1014.5
20260906044010 25 128 0.0 3.2 0.00 0.00 0.00 70 1014.6
20260906043510 25 128 0.0 3.2 0.00 0.00 0.00 71 1014.6
20260906043033 25 128 0.0 0.0 0.00 0.00 0.00 70 1014.5
20260906042518 25 128 0.0 0.0 0.00 0.00 0.00 69 1014.7
20260906042012 25 128 0.0 3.2 0.00 0.00 0.00 69 1014.9
20260906041529 25 128 0.0 3.2 0.00 0.00 0.00 69 1014.7
20260906041016 26 128 0.0 3.2 0.00 0.00 0.00 68 1014.6
20260906040508 26 128 0.0 3.2 0.00 0.00 0.00 67 1014.6
20260906040028 26 128 0.0 3.2 0.00 0.00 0.00 67 1014.6
20260906035514 26 128 0.0 3.2 0.00 0.00 0.00 67 1014.6
20260906035018 26 128 0.0 3.2 0.00 0.00 0.00 65 1014.7
20260906034524 26 128 0.0 0.0 0.00 0.00 0.00 66 1014.7
20260906034014 26 128 0.0 0.0 0.00 0.00 0.00 66 1014.7
20260906033515 26 128 0.0 1.6 0.00 0.00 0.00 66 1014.6
20260906033024 26 128 0.0 3.2 0.00 0.00 0.00 66 1014.6
20260906032512 26 128 0.0 3.2 0.00 0.00 0.00 66 1014.5
20260906032014 26 128 0.0 3.2 0.00 0.00 0.00 66 1014.4
20260906031537 26 128 0.0 1.6 0.00 0.00 0.00 65 1014.4
20260906031010 26 128 0.0 3.2 0.00 0.00 0.00 65 1014.5
20260906030515 26 128 0.0 3.2 0.00 0.00 0.00 64 1014.5
20260906030034 27 128 0.0 3.2 0.00 0.00 0.00 62 1014.3
20260906025508 26 109 1.6 3.2 0.00 0.00 0.00 63 1014.3
20260906025014 26 69 0.0 3.2 0.00 0.00 0.00 64 1014.2
20260906024528 27 93 0.0 4.8 0.00 0.00 0.00 60 1014.2
20260906024016 27 93 0.0 4.8 0.00 0.00 0.00 60 1014.1
20260906023510 27 94 0.0 3.2 0.00 0.00 0.00 59 1014.0
20260906023042 27 105 0.0 3.2 0.00 0.00 0.00 59 1013.9
20260906022515 27 97 0.0 3.2 0.00 0.00 0.00 59 1013.9
20260906022009 27 97 0.0 3.2 0.00 0.00 0.00 59 1014.0
20260906021527 27 97 0.0 3.2 0.00 0.00 0.00 59 1013.8
20260906021022 27 97 0.0 3.2 0.00 0.00 0.00 59 1013.8
20260906020520 28 97 0.0 3.2 0.00 0.00 0.00 59 1013.7
20260906020027 28 97 0.0 3.2 0.00 0.00 0.00 59 1013.7
20260906015516 28 34 0.0 3.2 0.00 0.00 0.00 58 1013.6
20260906015016 28 34 0.0 3.2 0.00 0.00 0.00 58 1013.5
20260906014527 28 34 0.0 3.2 0.00 0.00 0.00 58 1013.5
20260906014013 28 34 0.0 3.2 0.00 0.00 0.00 58 1013.5
20260906013516 28 28 0.0 0.0 0.00 0.00 0.00 58 1013.5
20260906013041 28 28 0.0 1.6 0.00 0.00 0.00 57 1013.4
20260906012510 28 28 0.0 3.2 0.00 0.00 0.00 57 1013.3
20260906012014 28 28 0.0 3.2 0.00 0.00 0.00 57 1013.4
20260906011538 29 65 0.0 3.2 0.00 0.00 0.00 56 1013.4
20260906011010 29 65 0.0 3.2 0.00 0.00 0.00 56 1013.3
20260906010512 30 30 0.0 3.2 0.00 0.00 0.00 55 1013.2
20260906010039 30 30 0.0 4.8 0.00 0.00 0.00 54 1013.4
20260906005507 30 43 1.6 8.0 0.00 0.00 0.00 54 1013.4
20260906005014 30 32 3.2 8.0 0.00 0.00 0.00 54 1013.3
20260906004510 29 39 1.6 6.4 0.00 0.00 0.00 55 1013.4
20260906004004 29 25 1.6 3.2 0.00 0.00 0.00 58 1013.5
20260906003508 30 110 0.0 3.2 0.00 0.00 0.00 56 1013.3
20260906003005 30 110 0.0 3.2 0.00 0.00 0.00 53 1013.3
20260906002503 31 110 0.0 3.2 0.00 0.00 0.00 54 1013.2
20260906002009 31 110 0.0 0.0 0.00 0.00 0.00 50 1013.3
20260906001524 31 110 0.0 1.6 0.00 0.00 0.00 50 1013.3
20260906001003 31 110 0.0 3.2 0.00 0.00 0.00 50 1013.3
20260906000505 32 110 0.0 3.2 0.00 0.00 0.00 50 1013.3
20260906000037 32 66 0.0 3.2 0.00 0.00 0.00 47 1013.4
20260905235504 32 76 0.0 4.8 0.00 0.00 0.00 46 1013.4
20260905235006 33 103 0.0 4.8 0.00 0.00 0.00 1013.4
20260905234518 33 82 1.6 3.2 0.00 0.00 0.00 45 1013.3
20260905234011 33 29 0.0 3.2 0.00 0.00 0.00 45 1013.4
20260905233504 33 29 1.6 4.8 0.00 0.00 0.00 46 1013.4
20260905233012 33 24 1.6 4.8 0.00 0.00 0.00 45 1013.3
20260905232510 34 15 0.0 6.4 0.00 0.00 0.00 46 1013.2
20260905232013 34 30 3.2 8.0 0.00 0.00 0.00 43 1013.2
20260905231510 35 12 4.8 8.0 0.00 0.00 0.00 41 1013.3
20260905231008 36 202 0.0 4.8 0.00 0.00 0.00 36 1013.1
20260905230512 36 232 1.6 4.8 0.00 0.00 0.00 35 1013.0
20260905230008 36 211 1.6 4.8 0.00 0.00 0.00 35 1012.9
20260905225507 36 120 1.6 4.8 0.00 0.00 0.00 35 1013.1
20260905225009 36 96 1.6 4.8 0.00 0.00 0.00 36 1013.0
20260905224531 36 82 0.0 3.2 0.00 0.00 0.00 37 1013.0
20260905224004 36 82 0.0 3.2 0.00 0.00 0.00 35 1013.0
20260905223510 36 118 0.0 4.8 0.00 0.00 0.00 36 1013.1
20260905223026 36 118 1.6 4.8 0.00 0.00 0.00 36 1013.0
20260905222504 36 148 0.0 3.2 0.00 0.00 0.00 36 1013.0
20260905222008 37 143 0.0 3.2 0.00 0.00 0.00 36 1013.1
20260905221523 36 143 0.0 4.8 0.00 0.00 0.00 35 1013.2
20260905221016 36 142 0.0 4.8 0.00 0.00 0.00 35 1013.1
20260905220506 37 148 0.0 3.2 0.00 0.00 0.00 36 1013.2
20260905220017 36 148 1.6 3.2 0.00 0.00 0.00 33 1013.2
20260905215514 37 97 1.6 4.8 0.00 0.00 0.00 36 1013.3
20260905215004 36 90 1.6 4.8 0.00 0.00 0.00 35 1013.2
20260905214518 37 100 1.6 4.8 0.00 0.00 0.00 36 1013.4
20260905214010 36 157 1.6 3.2 0.00 0.00 0.00 36 1013.4
20260905213517 37 9 0.0 3.2 0.00 0.00 0.00 37 1013.3
20260905213012 37 260 0.0 4.8 0.00 0.00 0.00 35 1013.3
20260905212510 36 261 1.6 4.8 0.00 0.00 0.00 35 1013.4
20260905212011 36 190 1.6 6.4 0.00 0.00 0.00 37 1013.5
20260905211507 36 234 1.6 8.0 0.00 0.00 0.00 36 1013.5
20260905211006 36 220 4.8 8.0 0.00 0.00 0.00 36 1013.6
20260905210516 36 273 1.6 6.4 0.00 0.00 0.00 37 1013.7
20260905210030 36 232 3.2 6.4 0.00 0.00 0.00 35 1013.8
20260905205504 37 269 4.8 6.4 0.00 0.00 0.00 35 1013.8
20260905205012 37 344 1.6 11.3 0.00 0.00 0.00 38 1013.8
20260905204535 36 254 0.0 11.3 0.00 0.00 0.00 38 1014.0
20260905204003 36 256 0.0 9.7 0.00 0.00 0.00 39 1014.1
20260905203506 36 282 3.2 9.7 0.00 0.00 0.00 38 1014.1
20260905203024 37 290 1.6 3.2 0.00 0.00 0.00 36 1014.1
20260905202521 36 24 0.0 3.2 0.00 0.00 0.00 36 1014.2
20260905202004 35 24 0.0 3.2 0.00 0.00 0.00 40 1014.3
20260905201522 36 24 0.0 3.2 0.00 0.00 0.00 39 1014.3
20260905201014 36 24 1.6 4.8 0.00 0.00 0.00 40 1014.4
20260905200514 37 98 1.6 4.8 0.00 0.00 0.00 39 1014.4
20260905200026 37 32 1.6 8.0 0.00 0.00 0.00 39 1014.5
20260905195510 37 343 3.2 8.0 0.00 0.00 0.00 41 1014.5
20260905195015 37 338 4.8 8.0 0.00 0.00 0.00 42 1014.5
20260905194512 36 360 0.0 12.9 0.00 0.00 0.00 39 1014.6
20260905194012 37 360 1.6 12.9 0.00 0.00 0.00 39 1014.6
20260905193515 36 342 4.8 12.9 0.00 0.00 0.00 43 1014.7
20260905193030 36 19 1.6 6.4 0.00 0.00 0.00 42 1014.8
20260905192508 36 120 1.6 4.8 0.00 0.00 0.00 42 1014.8
20260905192014 36 24 1.6 3.2 0.00 0.00 0.00 41 1014.9
20260905191530 36 344 1.6 6.4 0.00 0.00 0.00 41 1015.0
20260905191007 36 78 1.6 6.4 0.00 0.00 0.00 40 1015.1
20260905190509 36 99 1.6 9.7 0.00 0.00 0.00 44 1015.1
20260905190028 36 96 4.8 9.7 0.00 0.00 0.00 41 1015.2
20260905185503 36 16 3.2 4.8 0.00 0.00 0.00 42 1015.3
20260905185007 36 115 0.0 6.4 0.00 0.00 0.00 41 1015.4
20260905184543 36 20 1.6 8.0 0.00 0.00 0.00 42 1015.5
20260905184003 36 352 3.2 11.3 0.00 0.00 0.00 45 1015.6
20260905183505 36 17 6.4 11.3 0.00 0.00 0.00 44 1015.6
20260905183036 35 243 1.6 4.8 0.00 0.00 0.00 49 1015.7
20260905182513 35 219 3.2 6.4 0.00 0.00 0.00 41 1015.8
20260905182004 35 146 1.6 6.4 0.00 0.00 0.00 43 1015.9
20260905181521 35 121 1.6 6.4 0.00 0.00 0.00 46 1016.0
20260905181013 36 26 1.6 12.9 0.00 0.00 0.00 47 1016.1
20260905180505 35 263 3.2 9.7 0.00 0.00 0.00 42 1016.1
20260905180019 35 352 3.2 9.7 0.00 0.00 0.00 43 1016.2
20260905175510 35 16 1.6 9.7 0.00 0.00 0.00 43 1016.3
20260905175015 35 42 4.8 9.7 0.00 0.00 0.00 45 1016.3
20260905174510 35 345 4.8 12.9 0.00 0.00 0.00 45 1016.4
20260905174009 35 331 8.0 12.9 0.00 0.00 0.00 46 1016.4
20260905173512 36 337 1.6 4.8 0.00 0.00 0.00 45 1016.5
20260905173009 35 352 1.6 4.8 0.00 0.00 0.00 47 1016.6
20260905172507 35 26 1.6 6.4 0.00 0.00 0.00 47 1016.6